Weather History for Cambridge, MD

Change the Weather History Date:

Saturday, January 19, 2013

  Actual Average (KESN) Record (KESN)
Temperature  
Mean Temperature 41 °F -  
Max Temperature 50 °F 43 °F 67 °F (1951)
Min Temperature 32 °F 24 °F 4 °F (1957)
Degree Days  
Heating Degree Days 24    
Moisture  
Dew Point 32 °F    
Average Humidity 72    
Maximum Humidity 93    
Minimum Humidity 54    
Precipitation  
Precipitation 0.00 in - - ()
Sea Level Pressure  
Sea Level Pressure 30.29 in    
Wind  
Wind Speed 8 mph (South)    
Max Wind Speed 15 mph    
Max Gust Speed 22 mph    
Visibility 10 miles    
Events      
Averages and records for this station are not official NWS values.
T = Trace of Precipitation, MM = Missing Value Source: NWS Daily Summary

Daily Weather History Graph

Daily Weather History Graph

Search for Another Location

Airport:

Trip Planner

Search our weather history database for the weather conditions in past years. The results will help you decide how hot, cold, wet, or windy it might be!

Date:

Astronomy

Jan. 19, 2013 Rise Set
Actual Time 7:18 AM EST 5:11 PM EST
Civil Twilight 6:49 AM EST 5:40 PM EST
Nautical Twilight 6:17 AM EST 6:13 PM EST
Astronomical Twilight 5:45 AM EST 6:44 PM EST
Moon 11:35 AM EST (1/19) 12:51 AM EST (1/19)
Length of Visible Light 10h 50m
Length of Day
9h 53m
First Quarter, 57% of the Moon is Illuminated
Jan 19
First Quarter
Jan 26
Full
Feb 3
Last Quarter
Feb 10
New
Feb 17
First Quarter

Hourly Weather History & Observations

Time (EST) Temp. Windchill Dew Point Humidity Pressure Visibility Wind Dir Wind Speed Gust Speed Precip Events Conditions
12:41 AM 32.0 °F 26.4 °F 28.4 °F 87% 30.45 in 10.0 mi SSE 5.8 mph - N/A   Clear
1:02 AM 32.0 °F 27.5 °F 28.4 °F 87% 30.45 in 10.0 mi South 4.6 mph - N/A   Clear
1:24 AM 32.0 °F 24.8 °F 28.4 °F 87% 30.45 in 10.0 mi South 8.1 mph - N/A   Clear
1:45 AM 32.0 °F 25.6 °F 26.6 °F 80% 30.44 in 10.0 mi South 6.9 mph - N/A   Clear
2:06 AM 32.0 °F 25.6 °F 26.6 °F 80% 30.44 in 10.0 mi South 6.9 mph - N/A   Clear
2:28 AM 35.6 °F 29.9 °F 30.2 °F 81% 30.44 in 10.0 mi South 6.9 mph - N/A   Clear
2:49 AM 33.8 °F 27.7 °F 30.2 °F 87% 30.43 in 10.0 mi South 6.9 mph - N/A   Clear
3:10 AM 32.0 °F 27.5 °F 28.4 °F 87% 30.43 in 10.0 mi South 4.6 mph - N/A   Clear
3:32 AM 32.0 °F 27.5 °F 28.4 °F 87% 30.43 in 10.0 mi South 4.6 mph - N/A   Clear
3:53 AM 32.0 °F 25.6 °F 30.2 °F 93% 30.42 in 10.0 mi South 6.9 mph - N/A   Clear
4:14 AM 35.6 °F 29.9 °F 30.2 °F 81% 30.41 in 10.0 mi South 6.9 mph - N/A   Clear
4:36 AM 35.6 °F 30.7 °F 30.2 °F 81% 30.41 in 10.0 mi South 5.8 mph - N/A   Clear
4:57 AM 35.6 °F 31.7 °F 30.2 °F 81% 30.41 in 10.0 mi South 4.6 mph - N/A   Clear
5:18 AM 35.6 °F 29.2 °F 30.2 °F 81% 30.41 in 10.0 mi South 8.1 mph - N/A   Clear
5:40 AM 35.6 °F 30.7 °F 30.2 °F 81% 30.41 in 10.0 mi South 5.8 mph - N/A   Clear
6:01 AM 35.6 °F 29.9 °F 30.2 °F 81% 30.41 in 10.0 mi South 6.9 mph - N/A   Clear
6:22 AM 35.6 °F 28.6 °F 30.2 °F 81% 30.40 in 10.0 mi South 9.2 mph - N/A   Clear
6:44 AM 35.6 °F 30.7 °F 30.2 °F 81% 30.40 in 10.0 mi SSW 5.8 mph - N/A   Clear
7:05 AM 35.6 °F 29.2 °F 30.2 °F 81% 30.40 in 10.0 mi SSW 8.1 mph - N/A   Clear
7:26 AM 35.6 °F 29.2 °F 30.2 °F 81% 30.39 in 10.0 mi South 8.1 mph - N/A   Clear
7:47 AM 37.4 °F 30.3 °F 32.0 °F 81% 30.39 in 10.0 mi SSW 10.4 mph - N/A   Clear
8:09 AM 37.4 °F 29.8 °F 30.2 °F 75% 30.39 in 10.0 mi SSW 11.5 mph 20.7 mph N/A   Clear
8:30 AM 37.4 °F 29.8 °F 30.2 °F 75% 30.39 in 10.0 mi SSW 11.5 mph 17.3 mph N/A   Clear
8:51 AM 37.4 °F 29.8 °F 30.2 °F 75% 30.39 in 10.0 mi SSW 11.5 mph 16.1 mph N/A   Clear
9:12 AM 41.0 °F 35.8 °F 30.2 °F 65% 30.39 in 10.0 mi SSW 8.1 mph 16.1 mph N/A   Clear
9:55 AM 41.0 °F 34.3 °F 30.2 °F 65% 30.40 in 10.0 mi SSW 11.5 mph 17.3 mph N/A   Clear
10:16 AM 41.0 °F 33.5 °F 30.2 °F 65% 30.38 in 10.0 mi SSW 13.8 mph 17.3 mph N/A   Clear
10:37 AM 42.8 °F 36.6 °F 32.0 °F 66% 30.37 in 10.0 mi SSW 11.5 mph 18.4 mph N/A   Clear
10:59 AM 42.8 °F 36.6 °F 30.2 °F 61% 30.36 in 10.0 mi South 11.5 mph 18.4 mph N/A   Clear
11:20 AM 42.8 °F 37.5 °F 32.0 °F 66% 30.33 in 10.0 mi SSW 9.2 mph 18.4 mph N/A   Clear
11:41 AM 44.6 °F 40.2 °F 32.0 °F 61% 30.32 in 10.0 mi South 8.1 mph 20.7 mph N/A   Clear
12:02 PM 44.6 °F 38.1 °F 32.0 °F 61% 30.30 in 10.0 mi SSW 13.8 mph - N/A   Clear
12:24 PM 46.4 °F 41.5 °F 32.0 °F 57% 30.28 in 10.0 mi SSW 10.4 mph 19.6 mph N/A   Clear
12:45 PM 46.4 °F 40.1 °F 32.0 °F 57% 30.27 in 10.0 mi South 15.0 mph 21.9 mph N/A   Clear
1:06 PM 46.4 °F 40.4 °F 32.0 °F 57% 30.25 in 10.0 mi SSW 13.8 mph 20.7 mph N/A   Clear
2:10 PM 50.0 °F - 33.8 °F 54% 30.22 in 10.0 mi South 12.7 mph 18.4 mph N/A   Clear
2:31 PM 50.0 °F - 33.8 °F 54% 30.20 in 10.0 mi SSW 10.4 mph 18.4 mph N/A   Clear
2:53 PM 50.0 °F - 33.8 °F 54% 30.20 in 10.0 mi South 10.4 mph 18.4 mph N/A   Clear
3:14 PM 50.0 °F - 33.8 °F 54% 30.18 in 10.0 mi South 8.1 mph 16.1 mph N/A   Clear
3:56 PM 46.4 °F 42.9 °F 35.6 °F 66% 30.17 in 10.0 mi South 6.9 mph 16.1 mph N/A   Clear
4:18 PM 46.4 °F 41.1 °F 35.6 °F 66% 30.16 in 10.0 mi South 11.5 mph 16.1 mph N/A   Clear
4:39 PM 44.6 °F 38.8 °F 35.6 °F 71% 30.16 in 10.0 mi South 11.5 mph 16.1 mph N/A   Clear
5:00 PM 42.8 °F 38.0 °F 33.8 °F 70% 30.15 in 10.0 mi South 8.1 mph - N/A   Clear
5:21 PM 42.8 °F 38.0 °F 35.6 °F 76% 30.15 in 10.0 mi South 8.1 mph - N/A   Clear
5:43 PM 42.8 °F 37.0 °F 35.6 °F 76% 30.14 in 10.0 mi SSE 10.4 mph 16.1 mph N/A   Clear
6:04 PM 41.0 °F 35.8 °F 33.8 °F 76% 30.14 in 10.0 mi South 8.1 mph - N/A   Clear
6:25 PM 41.0 °F 35.8 °F 33.8 °F 76% - 10.0 mi South 8.1 mph - N/A   Clear
6:46 PM 41.0 °F 36.4 °F 33.8 °F 76% 30.13 in 10.0 mi South 6.9 mph - N/A   Clear
7:29 PM 42.8 °F 38.0 °F 33.8 °F 70% 30.13 in 10.0 mi South 8.1 mph - N/A   Clear
7:50 PM 42.8 °F 37.5 °F 33.8 °F 70% 30.12 in 10.0 mi South 9.2 mph - N/A   Clear
8:33 PM 44.6 °F 42.2 °F 32.0 °F 61% 30.12 in 10.0 mi SSW 4.6 mph - N/A   Clear
8:54 PM 44.6 °F 41.4 °F 32.0 °F 61% 30.11 in 10.0 mi SSW 5.8 mph - N/A   Clear
9:15 PM 44.6 °F 40.2 °F 32.0 °F 61% 30.10 in 10.0 mi SSW 8.1 mph - N/A   Clear
9:36 PM 44.6 °F 39.7 °F 32.0 °F 61% 30.10 in 10.0 mi SSW 9.2 mph 16.1 mph N/A   Clear
9:58 PM 44.6 °F 39.7 °F 32.0 °F 61% 30.09 in 10.0 mi SSW 9.2 mph - N/A   Clear
10:19 PM 44.6 °F 39.7 °F 32.0 °F 61% 30.08 in 10.0 mi SSW 9.2 mph - N/A   Clear
10:40 PM 44.6 °F 39.7 °F 32.0 °F 61% 30.07 in 10.0 mi SSW 9.2 mph - N/A   Clear
11:02 PM 42.8 °F 37.5 °F 32.0 °F 66% 30.06 in 10.0 mi SSW 9.2 mph - N/A   Clear
11:23 PM 42.8 °F 37.5 °F 32.0 °F 66% 30.05 in 10.0 mi SSW 9.2 mph - N/A   Clear